Time,TemperatureF,DewpointF,PressureIn,WindDirection,WindDirectionDegrees,WindSpeedMPH,WindSpeedGustMPH,Humidity,HourlyPrecipIn,Conditions,Clouds,dailyrainin,SoftwareType,DateUTC
2013-02-06 04:22:00,30.9,23.9,29.74,ENE,67,0.0,0.0,75,0.00,,---,0.00,VWS V14.01,2013-02-06 09:22:00,
2013-02-06 04:24:00,30.9,23.9,29.74,ENE,67,0.0,0.0,75,0.00,,---,0.00,VWS V14.01,2013-02-06 09:24:00,
2013-02-06 04:28:00,30.9,23.9,29.74,ENE,67,0.0,0.0,75,0.00,,---,0.00,VWS V14.01,2013-02-06 09:28:00,
2013-02-06 04:32:00,30.7,23.8,29.74,ENE,67,0.0,0.0,75,0.00,,---,0.00,VWS V14.01,2013-02-06 09:32:00,
2013-02-06 04:38:00,30.4,23.4,29.74,ENE,67,0.0,0.0,75,0.00,,---,0.00,VWS V14.01,2013-02-06 09:38:00,
2013-02-06 04:44:00,30.2,23.6,29.74,ENE,67,5.7,7.9,76,0.00,,---,0.00,VWS V14.01,2013-02-06 09:44:00,
2013-02-06 04:49:00,30.0,23.4,29.77,ENE,67,6.4,6.4,76,0.00,,---,0.00,VWS V14.01,2013-02-06 09:49:00,
2013-02-06 04:55:00,29.8,23.2,29.77,ENE,67,7.2,7.2,76,0.00,,---,0.00,VWS V14.01,2013-02-06 09:55:00,
2013-02-06 17:10:00,37.6,8.2,29.97,WSW,248,10.0,10.0,29,0.00,,---,0.00,VWS V14.01,2013-02-06 22:10:00,
2013-02-06 17:16:00,37.4,8.1,29.97,West,262,8.6,13.2,29,0.00,,---,0.00,VWS V14.01,2013-02-06 22:16:00,
2013-02-06 17:22:00,37.0,7.8,29.97,West,263,6.4,10.0,29,0.00,,---,0.00,VWS V14.01,2013-02-06 22:22:00,
2013-02-06 17:28:00,36.9,7.6,29.97,West,262,8.6,9.3,29,0.00,,---,0.00,VWS V14.01,2013-02-06 22:28:00,
2013-02-06 17:33:00,36.7,8.2,29.97,West,281,9.3,9.3,30,0.00,,---,0.00,VWS V14.01,2013-02-06 22:33:00,
2013-02-06 17:39:00,36.3,7.9,29.97,West,274,8.6,8.6,30,0.00,,---,0.00,VWS V14.01,2013-02-06 22:39:00,
2013-02-06 17:44:00,36.3,7.9,30.00,WNW,286,6.4,10.0,30,0.00,,---,0.00,VWS V14.01,2013-02-06 22:44:00,
2013-02-06 17:50:00,36.1,7.7,30.00,West,265,0.0,6.4,30,0.00,,---,0.00,VWS V14.01,2013-02-06 22:50:00,
2013-02-06 17:56:00,35.8,7.4,30.00,West,276,3.6,5.0,30,0.00,,---,0.00,VWS V14.01,2013-02-06 22:56:00,
2013-02-06 18:01:00,35.6,7.2,30.00,NW,309,4.3,4.3,30,0.00,,---,0.00,VWS V14.01,2013-02-06 23:01:00,
2013-02-06 18:06:00,35.6,7.2,30.00,WSW,256,6.4,6.4,30,0.00,,---,0.00,VWS V14.01,2013-02-06 23:06:00,
2013-02-06 18:11:00,35.4,7.1,30.00,West,278,5.0,9.3,30,0.00,,---,0.00,VWS V14.01,2013-02-06 23:11:00,
2013-02-06 18:17:00,35.1,6.8,30.03,NW,304,4.3,5.7,30,0.00,,---,0.00,VWS V14.01,2013-02-06 23:17:00,
2013-02-06 18:22:00,35.1,6.8,30.03,West,273,8.6,8.6,30,0.00,,---,0.00,VWS V14.01,2013-02-06 23:22:00,
2013-02-06 18:28:00,34.9,6.6,30.03,West,274,6.4,7.9,30,0.00,,---,0.00,VWS V14.01,2013-02-06 23:28:00,
2013-02-06 18:34:00,34.9,6.6,30.03,West,278,3.6,6.4,30,0.00,,---,0.00,VWS V14.01,2013-02-06 23:34:00,
2013-02-06 18:39:00,34.9,6.6,30.03,WNW,282,0.0,0.0,30,0.00,,---,0.00,VWS V14.01,2013-02-06 23:39:00,
2013-02-06 18:44:00,34.9,6.6,30.03,NW,308,0.0,0.0,30,0.00,,---,0.00,VWS V14.01,2013-02-06 23:44:00,
2013-02-06 18:49:00,34.9,6.6,30.03,WNW,296,0.0,5.7,30,0.00,,---,0.00,VWS V14.01,2013-02-06 23:49:00,
2013-02-06 18:55:00,34.9,6.6,30.03,NNW,344,6.4,10.0,30,0.00,,---,0.00,VWS V14.01,2013-02-06 23:55:00,
2013-02-06 19:00:00,34.9,6.6,30.03,NNW,333,0.0,5.7,30,0.00,,---,0.00,VWS V14.01,2013-02-07 00:00:00,
2013-02-06 19:06:00,34.9,4.3,30.03,NNW,337,0.0,0.0,27,0.00,,---,0.00,VWS V14.01,2013-02-07 00:06:00,
2013-02-06 19:11:00,34.9,4.3,30.03,WNW,301,3.6,5.7,27,0.00,,---,0.00,VWS V14.01,2013-02-07 00:11:00,
2013-02-06 19:16:00,34.7,4.2,30.06,NW,315,0.0,4.3,27,0.00,,---,0.00,VWS V14.01,2013-02-07 00:16:00,
2013-02-06 19:21:00,34.5,4.0,30.06,WNW,285,6.4,7.9,27,0.00,,---,0.00,VWS V14.01,2013-02-07 00:21:00,
2013-02-06 19:27:00,34.5,4.0,30.06,North,353,10.0,10.0,27,0.00,,---,0.00,VWS V14.01,2013-02-07 00:27:00,
2013-02-06 19:32:00,34.7,4.2,30.06,NNW,328,5.7,9.3,27,0.00,,---,0.00,VWS V14.01,2013-02-07 00:32:00,
2013-02-06 19:38:00,34.7,4.2,30.06,NNW,340,0.0,5.0,27,0.00,,---,0.00,VWS V14.01,2013-02-07 00:38:00,